This demonstration page uses our WeatherBlox Daily Observations layout. Learn more.

Left ArrowRight Arrow

Hourly Observations for February 26, 2021

Temp ( °F °C ) Dew Point ( °F °C ) Humidity (%) Winds ( mph kmh ) Pressure ( in mb ) Visibility ( mi km ) Precip ( " mm )
12:54 am 00:54 Clear 28 -2.2 22 -5.6 78 78 SSE 5 7 30.18 1022 10 16.0934 0 0
1:54 am 01:54 Clear 26 -3.3 19 -7.2 75 75 S 8 13 30.15 1021 10 16.0934 0 0
2:54 am 02:54 Mostly Cloudy 25 -3.9 18 -7.8 75 75 S 7 11 30.12 1020 10 16.0934 0 0
3:54 am 03:54 Mostly Cloudy 27 -2.8 19 -7.2 72 72 S 6 9 30.08 1019 10 16.0934 0 0
4:54 am 04:54 Clear 25 -3.9 18 -7.8 75 75 SSE 6 9 30.06 1018 10 16.0934 0 0
5:54 am 05:54 Cloudy 28 -2.2 20 -6.7 72 72 SSE 6 9 30.06 1018 10 16.0934 0 0
6:54 am 06:54 Partly Cloudy 27 -2.8 19 -7.2 72 72 SSE 7 11 30.05 1018 10 16.0934 0 0
7:54 am 07:54 Mostly Sunny 25 -3.9 19 -7.2 78 78 SSE 7 11 30.03 1017 10 16.0934 0 0
8:54 am 08:54 Mostly Cloudy 34 1.1 23 -5 64 64 SW 6 9 30.03 1017 10 16.0934 0 0
9:54 am 09:54 Partly Cloudy 37 2.8 24 -4.4 59 59 S 14 22 29.98 1015 10 16.0934 0 0
10:54 am 10:54 Sunny 39 3.9 25 -3.9 57 57 SSW 14 22 29.95 1014 10 16.0934 0 0
11:54 am 11:54 Sunny 41 5 27 -2.8 57 57 SSW 10 17 29.92 1013 10 16.0934 0 0
12:54 pm 12:54 Sunny 44 6.7 27 -2.8 51 51 S 9 15 29.89 1012 10 16.0934 0 0
1:54 pm 13:54 Sunny 44 6.7 26 -3.3 49 49 SSW 10 17 29.84 1011 10 16.0934 0 0
2:54 pm 14:54 Partly Cloudy 44 6.7 27 -2.8 51 51 S 13 20 29.82 1010 10 16.0934 0 0
3:54 pm 15:54 Mostly Sunny 44 6.7 27 -2.8 51 51 SW 7 11 29.8 1009 10 16.0934 0 0
4:54 pm 16:54 Partly Cloudy 42 5.6 28 -2.2 58 58 SSE 14 22 29.76 1008 10 16.0934 0 0
5:54 pm 17:54 Mostly Sunny 42 5.6 28 -2.2 58 58 SSW 5 7 29.78 1009 10 16.0934 0 0
6:54 pm 18:54 Clear 38 3.3 27 -2.8 65 65 S 3 6 29.8 1009 10 16.0934 0 0
7:54 pm 19:54 Clear 36 2.2 27 -2.8 70 70 SSE 6 9 29.81 1009 10 16.0934 0 0
8:54 pm 20:54 Clear 36 2.2 26 -3.3 67 67 SSE 5 7 29.8 1009 10 16.0934 0 0
9:54 pm 21:54 Clear 32 0 25 -3.9 75 75 SSE 5 7 29.82 1010 10 16.0934 0 0
10:54 pm 22:54 Clear 32 0 25 -3.9 75 75 S 3 6 29.84 1011 10 16.0934 0 0
11:54 pm 23:54 Clear 34 1.1 24 -4.4 67 67 WSW 3 6 29.84 1010 10 16.0934 0 0

Powered by AerisWeather